Flag for Slovakia Weather past 2 weeks in Prievidza, Slovakia

Now
58 °F

Scattered clouds.


Feels Like: N/A
Forecast: 33 / 73 °F
Wind: N/A

Location: Prievidza

Current Time: May 28, 2015 at 7:02:16 PM

Latest Report: May 28, 2015 at 6:00 PM


Visibility: 22 mi

Pressure: 30.01 "Hg

Humidity: 47%

Dew point: 38 °F

Location of PrievidzaLocation

Historic Weather in Prievidza — Graph

°F

Prievidza temperature yesterday

Maximum temperature yesterday: 56 °F (at 4:00 PM)
Minimum temperature yesterday: 51 °F (at 11:00 PM)
Average temperature yesterday: 54 °F

Past Weeks' High & Low Weather Summary

 TemperatureHumidityPressure
High80 °F (May 19, 3:00 PM)95% (May 21, 12:00 AM)30.20 "Hg (May 21, 12:00 AM)
Low38 °F (May 15, 5:00 AM)24% (May 16, 5:00 PM)29.71 "Hg (May 19, 6:00 PM)
Average58 °F70%29.95 "Hg
* Reported May 13 6:00 PM — May 28 6:00 PM, Prievidza, Weather by CustomWeather, © 2015

Note: Actual official high and low records may vary slightly from our data, if they occured in-between our weather recording intervals... More about our weather records

Advertising

Prievidza weather history for previous 24 hours

 ConditionsComfort  
Time TempWeatherWind HumidityBarometerVisibility
6:00 PM
Thu, May 28
58 °FScattered clouds.N/A47%30.01 "Hg22 mi
5:00 PM58 °FPartly sunny.N/A47%30.03 "Hg25 mi
4:00 PM58 °FPartly sunny.3 mph46%30.05 "Hg19 mi
3:00 PM57 °FOvercast.3 mph47%30.06 "Hg16 mi
2:00 PM56 °FOvercast.5 mph52%30.07 "Hg22 mi
1:00 PM57 °FOvercast.2 mph46%30.07 "Hg19 mi
12:00 PM55 °FCool.3 mph54%30.09 "HgN/A
11:00 AM55 °FOvercast.N/A54%30.09 "Hg25 mi
10:00 AM54 °FOvercast.N/A62%30.10 "Hg22 mi
9:00 AM52 °FOvercast.N/A70%30.10 "Hg16 mi
8:00 AM51 °FOvercast.N/A73%30.10 "Hg19 mi
7:00 AM50 °FRain showers. Cloudy.N/A71%30.09 "Hg19 mi
6:00 AM50 °FCool.3 mph68%30.08 "Hg19 mi
5:00 AM50 °FCool.3 mph65%30.07 "Hg25 mi
4:00 AM51 °FCool.N/A64%30.07 "Hg28 mi
3:00 AM51 °FCool.3 mph63%30.08 "Hg28 mi
2:00 AM51 °FCool.5 mph61%30.07 "Hg25 mi
1:00 AM51 °FCool.3 mph61%30.08 "Hg28 mi
12:00 AM51 °FCool.5 mph58%30.08 "Hg28 mi
11:00 PM
Wed, May 27
51 °FCool.5 mph58%30.07 "Hg28 mi
10:00 PM52 °FOvercast.5 mph57%30.07 "Hg28 mi
9:00 PM52 °FPassing clouds.5 mph59%30.06 "Hg28 mi
8:00 PM53 °FOvercast.5 mph55%30.04 "Hg25 mi
7:00 PM54 °FOvercast.5 mph53%30.03 "Hg25 mi
Weather by CustomWeather, © 2015

See weather overviewHow to use our weather pages